Regional Weather Roundup
Issued by NWS

Home | Current Version | Previous Version | Graphics & Text | Print | Product List | Glossary On
Versions: 1 2 3 4 5 6 7 8 9 10 11 12 13 14 15 16 17 18 19 20 21 22 23 24 25 26 27 28 29 30 31 32 33 34 35 36 37 38 39 40 41 42 43 44 45 46 47 48 49 50
000
ASUS43 KOAX 211202
RWRNE

WEATHER ROUNDUP FOR NEBRASKA
NATIONAL WEATHER SERVICE OMAHA NE
600 AM CST SUN DEC 21 2014

NOTES: SATELLITE DATA IS BEING USED TO AUGMENT CLOUD COVER ABOVE
       12000 FEET.
       "FAIR" INDICATES FEW OR NO CLOUDS BELOW 12,000 FEET WITH NO
       SIGNIFICANT WEATHER AND/OR OBSTRUCTIONS TO VISIBILITY.

  * THESE STATIONS DO NOT REPORT WEATHER SUCH AS RAIN...SNOW OR FOG.

NEZ001>004-019>022-054>056-211300-
NEBRASKA PANHANDLE

CITY           SKY/WX    TMP DP  RH WIND       PRES   REMARKS
SCOTTSBLUFF    CLEAR     21  17  84 E6        29.71F WCI  13
6HR MIN TEMP:  19; 6HR MAX TEMP:  38;

ALLIANCE       PTCLDY    24  20  84 S5        29.69F WCI  18
6HR MIN TEMP:  22; 6HR MAX TEMP:  34;

CHADRON        CLEAR     28  23  81 SW6       29.65F WCI  22
6HR MIN TEMP:  21; 6HR MAX TEMP:  29;

SIDNEY         CLEAR     20  16  84 W7        29.75F WCI  11
6HR MIN TEMP:  20; 6HR MAX TEMP:  35;

$$

NEZ057>060-069>072-079>082-211300-
SOUTHWEST NEBRASKA

CITY           SKY/WX    TMP DP  RH WIND       PRES   REMARKS
NORTH PLATTE   MOCLDY    25  23  92 CALM      29.79F FOG
6HR MIN TEMP:  21; 6HR MAX TEMP:  28;

IMPERIAL       PTCLDY    28  24  85 W7        29.79F WCI  21
6HR MIN TEMP:  27; 6HR MAX TEMP:  37;

LEXINGTON      CLOUDY    32  30  92 N3        29.79F
MCCOOK         CLOUDY    29  26  89 CALM      29.79F
6HR MIN TEMP:  26; 6HR MAX TEMP:  32;

$$

NEZ005>010-023>029-035>040-094-211300-
NORTH CENTRAL NEBRASKA

CITY           SKY/WX    TMP DP  RH WIND       PRES   REMARKS
VALENTINE      PTCLDY    25  22  88 SW3       29.70F
6HR MIN TEMP:  24; 6HR MAX TEMP:  29;

AINSWORTH      CLOUDY    32  26  78 SW9       29.72F WCI  24
BROKEN BOW     CLOUDY    30  27  88 SE3       29.77F
6HR MIN TEMP:  25; 6HR MAX TEMP:  30;

$$

NEZ041-046>049-061>064-073>077-083>087-211300-
SOUTH CENTRAL NEBRASKA

CITY           SKY/WX    TMP DP  RH WIND       PRES   REMARKS
GRAND ISLAND   PTCLDY    32  31  96 S8        29.84F WCI  25
6HR MIN TEMP:  25; 6HR MAX TEMP:  32;

AURORA         MOCLDY    33  33 100 S7        29.84F FOG     WCI  27
HASTINGS       CLOUDY    33  32  96 S3        29.84F FOG
6HR MIN TEMP:  29; 6HR MAX TEMP:  34;

KEARNEY *      CLOUDY    28  27  93 SE3       29.82F
$$

NEZ011>018-030>034-042>045-211300-
NORTHEAST NEBRASKA

CITY           SKY/WX    TMP DP  RH WIND       PRES   REMARKS
NORFOLK        FOG       32  31  96 S8        29.82F VSB 3/4 WCI  25
6HR MIN TEMP:  32; 6HR MAX TEMP:  34;

COLUMBUS *     CLOUDY    36  30  80 SW7       29.87S WCI  30
TEKAMAH        CLOUDY    38  36  92 S15       29.88F WCI  29
6HR MIN TEMP:  34; 6HR MAX TEMP:  38;

$$

NEZ050>053-065>068-078-088>093-211300-
SOUTHEAST NEBRASKA

CITY           SKY/WX    TMP DP  RH WIND       PRES   REMARKS
LINCOLN        CLOUDY    39  36  89 S14       29.91F WCI  31
6HR MIN TEMP:  33; 6HR MAX TEMP:  39;

OMAHA EPPLEY   CLOUDY    37  35  92 S12       29.93F FOG     WCI  29
6HR MIN TEMP:  35; 6HR MAX TEMP:  37;

FALLS CITY     PTCLDY    36  33  89 S12       29.97F WCI  28
6HR MIN TEMP:  34; 6HR MAX TEMP:  36;

NEBRASKA CITY  PTCLDY    35  35 100 S10       29.94F FOG     WCI  28
$$

NEZ044-045-051>053-067-211300-
OMAHA AREA

CITY           SKY/WX    TMP DP  RH WIND       PRES   REMARKS
OMAHA EPPLEY   CLOUDY    37  35  92 S12       29.93F FOG     WCI  29
6HR MIN TEMP:  35; 6HR MAX TEMP:  37;

OFFUTT AFB     CLOUDY    37  36  94 S8        29.92F WCI  31
WAHOO          CLOUDY    38  35  88 S12G17    29.89S WCI  31
$$



USA.gov is the U.S. government's official web portal to all federal, state and local government web resources and services.